Terminal Aerodrome Forecast
Issued by NWS Omaha/Valley, NE

Home | Current Version | Previous Version | Text Only | Print | Product List | Glossary On
Versions: 1 2 3 4 5 6 7 8 9 10 11 12 13 14 15 16 17 18 19 20 21 22 23 24 25 26
000
FTUS43 KOAX 291122
TAFOMA
TAF
KOMA 291122Z 2912/3012 01010KT P6SM SCT015 OVC070
      TEMPO 2914/2918 3SM -SN BR OVC015
     FM291800 01014KT 4SM -SN BR OVC020
     FM292300 36015KT P6SM OVC025
     FM300600 35012KT P6SM OVC090=

USA.gov is the U.S. government's official web portal to all federal, state and local government web resources and services.